W3ADC Weather Reports


time (UTC)temp
C
wind
direction
speed
KPH
gust
KPH
rain 1hr
cm
rain 24hr
cm
rain mn
cm
humidity
%
barometer
mb
20260510022542 13 136 0.0 6.4 0.00 0.20 0.20 84 1009.2
20260510022040 13 135 0.0 4.8 0.00 0.20 0.20 84 1009.1
20260510021544 13 103 1.6 3.2 0.00 0.20 0.20 84 1009.0
20260510021039 13 0 0.0 3.2 0.00 0.20 0.20 84 1009.1
20260510020540 13 0 0.0 4.8 0.00 0.20 0.20 84 1009.1
20260510020051 13 0 0.0 4.8 0.00 0.20 0.20 83 1009.0
20260510015541 13 0 0.0 3.2 0.00 0.20 0.20 83 1009.0
20260510015040 13 90 1.6 3.2 0.00 0.20 0.20 83 1008.9
20260510014550 13 88 0.0 3.2 0.00 0.20 0.20 82 1009.0
20260510014040 13 81 0.0 4.8 0.00 0.20 0.20 82 1009.0
20260510013540 13 0 0.0 4.8 0.00 0.20 0.20 81 1008.8
20260510013102 13 0 0.0 1.6 0.00 0.20 0.20 81 1009.0
20260510012543 13 0 0.0 1.6 0.00 0.20 0.20 80 1008.9
20260510012042 13 0 0.0 3.2 0.00 0.20 0.20 80 1008.9
20260510011550 13 0 0.0 3.2 0.00 0.20 0.20 79 1008.8
20260510011040 14 0 0.0 3.2 0.00 0.20 0.20 79 1008.7
20260510010541 14 0 0.0 3.2 0.00 0.20 0.20 78 1008.6
20260510005540 14 0 0.0 6.4 0.00 0.20 0.20 77 1008.4
20260510005040 15 68 0.0 6.4 0.00 0.20 0.20 77 1008.4
20260510004557 15 68 1.6 6.4 0.00 0.20 0.20 76 1008.3
20260510004040 15 90 0.0 3.2 0.00 0.20 0.20 76 1008.3
20260510003540 15 0 0.0 3.2 0.00 0.20 0.20 75 1008.3
20260510003045 15 86 0.0 3.2 0.00 0.20 0.20 75 1008.3
20260510002539 15 0 0.0 4.8 0.00 0.20 0.20 74 1008.3
20260510002040 15 0 0.0 4.8 0.00 0.20 0.20 73 1008.2
20260510001546 15 119 0.0 3.2 0.00 0.20 0.20 73 1008.1
20260510001043 16 123 0.0 3.2 0.00 0.20 0.20 72 1008.1
20260510000542 16 0 0.0 4.8 0.00 0.20 0.20 72 1008.2
20260510000055 16 0 1.6 4.8 0.00 0.20 0.20 72 1008.1
20260509235539 16 128 0.0 4.8 0.00 0.20 0.20 71 1008.0
20260509235039 16 165 1.6 9.7 0.00 0.20 0.20 71 1008.0
20260509234604 16 115 1.6 9.7 0.00 0.20 0.20 71 1008.0
20260509234044 16 131 1.6 8.0 0.00 0.20 0.20 70 1007.9
20260509233541 16 0 1.6 6.4 0.00 0.20 0.20 70 1008.0
20260509233050 16 138 1.6 6.4 0.00 0.20 0.20 70 1008.0
20260509232543 16 143 1.6 9.7 0.00 0.20 0.20 70 1008.0
20260509232042 16 126 1.6 9.7 0.00 0.20 0.20 69 1008.0
20260509231550 16 0 3.2 6.4 0.00 0.20 0.20 69 1008.0
20260509231042 17 0 1.6 6.4 0.00 0.20 0.20 69 1008.1
20260509230542 17 136 1.6 6.4 0.00 0.20 0.20 68 1008.1
20260509230054 17 0 1.6 6.4 0.00 0.20 0.20 68 1008.1
20260509225541 17 144 1.6 6.4 0.00 0.20 0.20 68 1007.8
20260509225040 17 126 1.6 9.7 0.00 0.20 0.20 68 1008.0
20260509224551 17 0 3.2 9.7 0.00 0.20 0.20 67 1008.0
20260509224043 17 120 1.6 6.4 0.00 0.20 0.20 67 1008.1
20260509223541 17 105 1.6 6.4 0.00 0.20 0.20 66 1008.1
20260509223050 17 0 0.0 6.4 0.00 0.20 0.20 66 1008.2
20260509222541 17 144 1.6 6.4 0.00 0.20 0.20 66 1008.2
20260509222040 17 96 1.6 6.4 0.00 0.20 0.20 66 1008.2
20260509221602 17 194 1.6 6.4 0.00 0.20 0.20 66 1008.2
20260509221040 17 72 1.6 6.4 0.00 0.20 0.20 65 1008.2
20260509220544 17 83 1.6 6.4 0.00 0.20 0.20 65 1008.1
20260509215541 17 76 3.2 8.0 0.00 0.20 0.20 67 1008.0
20260509215042 17 79 0.0 9.7 0.00 0.20 0.20 65 1008.0
20260509214553 17 134 1.6 9.7 0.00 0.20 0.20 66 1008.1
20260509214041 17 92 1.6 6.4 0.00 0.20 0.20 67 1008.2
20260509213540 17 0 1.6 6.4 0.00 0.20 0.20 64 1008.2
20260509213050 17 107 0.0 4.8 0.00 0.20 0.20 66 1008.3
20260509212544 16 0 0.0 4.8 0.00 0.20 0.20 67 1008.3
20260509212043 16 82 1.6 4.8 0.00 0.20 0.20 66 1008.5
20260509211547 16 88 1.6 4.8 0.00 0.20 0.20 67 1008.5
20260509211043 16 119 0.0 4.8 0.00 0.20 0.20 67 1008.5
20260509210544 16 119 0.0 4.8 0.00 0.20 0.20 67 1008.6
20260509210058 16 0 0.0 4.8 0.00 0.20 0.20 66 1008.6
20260509205541 16 84 0.0 6.4 0.00 0.20 0.20 66 1008.6
20260509205041 16 84 1.6 6.4 0.00 0.20 0.20 67 1008.5
20260509204553 16 92 1.6 6.4 0.00 0.20 0.20 66 1008.5
20260509204041 16 134 1.6 6.4 0.00 0.20 0.20 66 1008.4
20260509203541 16 109 1.6 6.4 0.00 0.20 0.20 66 1008.4
20260509203055 16 114 1.6 11.3 0.00 0.20 0.20 66 1008.4
20260509202541 17 138 1.6 11.3 0.00 0.20 0.20 67 1008.4
20260509202043 17 0 3.2 11.3 0.00 0.20 0.20 65 1008.5
20260509201548 17 88 1.6 8.0 0.00 0.20 0.20 65 1008.5
20260509201041 17 131 3.2 8.0 0.00 0.20 0.20 65 1008.5
20260509200542 17 148 3.2 9.7 0.00 0.20 0.20 64 1008.6
20260509200050 17 105 1.6 9.7 0.00 0.20 0.20 65 1008.5
20260509195541 17 0 1.6 9.7 0.00 0.20 0.20 63 1008.6
20260509195043 17 128 0.0 9.7 0.00 0.20 0.20 63 1008.6
20260509194546 17 0 3.2 9.7 0.00 0.20 0.20 61 1008.6
20260509194042 18 144 1.6 6.4 0.00 0.20 0.20 61 1008.7
20260509193544 18 155 1.6 6.4 0.00 0.20 0.20 60 1008.6
20260509193059 18 172 0.0 4.8 0.00 0.20 0.20 59 1008.7
20260509192540 17 176 0.0 6.4 0.00 0.20 0.20 59 1008.6
20260509192050 17 0 0.0 6.4 0.00 0.20 0.20 58 1008.7
20260509191610 18 219 1.6 6.4 0.00 0.20 0.20 62 1008.8
20260509191041 18 208 0.0 6.4 0.00 0.20 0.20 61 1008.7
20260509190543 17 180 1.6 6.4 0.00 0.20 0.20 60 1008.8
20260509190105 17 303 1.6 4.8 0.00 0.20 0.20 61 1008.9
20260509185544 17 0 0.0 3.2 0.00 0.20 0.20 65 1008.9
20260509185041 17 0 0.0 8.0 0.00 0.20 0.20 61 1009.0
20260509184544 16 138 1.6 8.0 0.00 0.20 0.20 60 1008.9
20260509184044 17 87 1.6 6.4 0.00 0.20 0.20 62 1008.9
20260509183541 17 137 1.6 6.4 0.00 0.20 0.20 63 1009.0
20260509183047 16 0 0.0 4.8 0.00 0.20 0.20 64 1009.0
20260509182545 16 134 1.6 9.7 0.00 0.20 0.20 68 1009.1
20260509182040 16 0 1.6 11.3 0.00 0.20 0.20 67 1009.3
20260509181547 16 102 3.2 11.3 0.00 0.20 0.20 70 1009.4
20260509181040 16 116 4.8 9.7 0.00 0.20 0.20 67 1009.6
20260509180541 16 0 1.6 8.0 0.00 0.20 0.20 68 1009.9
20260509180052 15 0 1.6 8.0 0.00 0.20 0.20 74 1009.9
20260509175540 15 207 1.6 12.9 0.00 0.20 0.20 73 1009.8
20260509175041 15 167 4.8 12.9 0.00 0.20 0.20 73 1010.0
20260509174549 15 196 1.6 6.4 0.00 0.20 0.20 75 1010.1
20260509174040 15 201 1.6 6.4 0.00 0.20 0.20 74 1009.9
20260509173539 14 89 3.2 6.4 0.00 0.20 0.20 74 1010.0
20260509173056 14 155 1.6 6.4 0.00 0.20 0.20 75 1010.1
20260509172541 14 0 1.6 6.4 0.00 0.20 0.20 75 1010.1
20260509172041 14 211 0.0 8.0 0.00 0.20 0.20 75 1010.2
20260509171604 14 137 3.2 8.0 0.00 0.20 0.20 75 1010.0
20260509171040 14 96 3.2 8.0 0.00 0.20 0.20 75 1009.9
20260509170541 14 86 1.6 6.4 0.00 0.20 0.20 75 1010.0
20260509170048 14 117 1.6 6.4 0.00 0.20 0.20 75 1010.1
20260509165540 14 105 0.0 6.4 0.00 0.20 0.20 75 1010.2
20260509165040 13 129 3.2 6.4 0.00 0.20 0.20 76 1010.0
20260509164552 13 91 0.0 4.8 0.00 0.20 0.20 74 1010.1
20260509164044 13 0 0.0 4.8 0.00 0.20 0.20 74 1010.0
20260509163547 13 0 1.6 6.4 0.00 0.20 0.20 74 1010.1
20260509163058 13 0 1.6 6.4 0.00 0.20 0.20 74 1010.2
20260509162544 13 0 0.0 6.4 0.00 0.20 0.20 74 1010.2
20260509162041 13 346 3.2 6.4 0.00 0.20 0.20 74 1010.2
20260509161549 14 191 0.0 6.4 0.00 0.20 0.20 74 1010.6
20260509161042 14 173 0.0 6.4 0.00 0.20 0.20 72 1010.6
20260509160541 14 193 0.0 6.4 0.00 0.20 0.20 74 1010.5
20260509160048 13 88 1.6 6.4 0.00 0.20 0.20 75 1010.5
20260509155540 13 160 0.0 8.0 0.00 0.20 0.20 80 1010.5
20260509155041 13 0 1.6 8.0 0.00 0.20 0.20 81 1010.6
20260509154549 13 111 1.6 9.7 0.00 0.20 0.20 82 1010.6
20260509154041 12 0 1.6 11.3 0.00 0.20 0.20 85 1010.7
20260509153541 12 131 3.2 11.3 0.03 0.20 0.20 86 1010.8
20260509153053 12 204 4.8 11.3 0.03 0.20 0.20 87 1010.7
20260509152541 12 202 3.2 6.4 0.05 0.20 0.20 88 1010.7
20260509152041 12 146 0.0 4.8 0.08 0.20 0.20 89 1010.7
20260509151552 11 148 0.0 6.4 0.10 0.20 0.20 89 1010.4
20260509151041 11 113 1.6 6.4 0.15 0.20 0.20 89 1010.3
20260509150540 11 153 1.6 4.8 0.18 0.20 0.20 88 1010.5
20260509150051 11 107 1.6 9.7 0.20 0.20 0.20 88 1010.3
20260509145541 11 136 1.6 9.7 0.20 0.20 0.20 88 1010.5
20260509145040 11 160 0.0 4.8 0.20 0.20 0.20 87 1010.8
20260509144553 11 146 1.6 4.8 0.20 0.20 0.20 86 1010.6
20260509144040 11 150 1.6 6.4 0.20 0.20 0.20 85 1010.4
20260509143541 11 80 1.6 6.4 0.18 0.18 0.18 83 1010.2
20260509143050 11 33 1.6 4.8 0.18 0.18 0.18 82 1010.2
20260509142540 11 53 1.6 4.8 0.15 0.15 0.15 81 1010.3
20260509142040 12 0 0.0 3.2 0.13 0.13 0.13 79 1010.6
20260509141551 12 0 0.0 4.8 0.10 0.10 0.10 78 1010.8
20260509141041 12 196 1.6 4.8 0.05 0.05 0.05 75 1010.9
20260509140540 12 205 0.0 3.2 0.03 0.03 0.03 74 1010.9
20260509140050 13 0 0.0 3.2 0.00 0.00 0.00 71 1010.6
20260509135538 13 0 0.0 6.4 0.00 0.00 0.00 68 1010.5
20260509135041 13 193 0.0 8.0 0.00 0.00 0.00 68 1010.6
20260509134557 13 0 0.0 8.0 0.00 0.00 0.00 67 1010.5
20260509134045 13 210 3.2 8.0 0.00 0.00 0.00 66 1010.7
20260509133541 13 198 0.0 12.9 0.00 0.00 0.00 65 1010.5
20260509133051 13 201 3.2 12.9 0.00 0.00 0.00 64 1010.5
20260509132541 13 198 3.2 12.9 0.00 0.00 0.00 63 1010.3
20260509132044 13 211 0.0 12.9 0.00 0.00 0.00 65 1010.3
20260509131601 13 215 6.4 12.9 0.00 0.00 0.00 63 1010.2
20260509131040 13 235 3.2 9.7 0.00 0.00 0.00 63 1010.0
20260509130541 13 144 3.2 9.7 0.00 0.00 0.00 63 1009.9
20260509130059 13 189 1.6 11.3 0.00 0.00 0.00 63 1010.1
20260509125544 13 184 4.8 11.3 0.00 0.00 0.00 64 1010.2
20260509125044 13 220 3.2 9.7 0.00 0.00 0.00 63 1010.2
20260509124550 13 181 3.2 11.3 0.00 0.00 0.00 63 1010.2
20260509124043 13 205 1.6 11.3 0.00 0.00 0.00 63 1010.1
20260509123540 12 201 1.6 6.4 0.00 0.00 0.00 64 1010.2
20260509123057 12 0 0.0 6.4 0.00 0.00 0.00 63 1010.0
20260509122540 12 197 3.2 6.4 0.00 0.00 0.00 63 1010.1
20260509122041 12 180 3.2 6.4 0.00 0.00 0.00 63 1010.0
20260509121551 12 176 1.6 6.4 0.00 0.00 0.00 63 1010.0
20260509121048 12 192 1.6 6.4 0.00 0.00 0.00 62 1010.1
20260509120541 12 0 1.6 4.8 0.00 0.00 0.00 62 1010.1
20260509120045 12 232 0.0 3.2 0.00 0.00 0.00 62 1010.1
20260509115540 12 0 0.0 3.2 0.00 0.00 0.00 63 1010.1
20260509115040 12 231 0.0 3.2 0.00 0.00 0.00 63 1010.0
20260509114605 12 0 0.0 3.2 0.00 0.00 0.00 63 1010.1
20260509114040 12 233 0.0 3.2 0.00 0.00 0.00 62 1010.0
20260509113541 12 312 0.0 3.2 0.00 0.00 0.00 62 1009.8
20260509113053 12 0 0.0 3.2 0.00 0.00 0.00 62 1009.8
20260509112543 12 0 0.0 3.2 0.00 0.00 0.00 62 1009.9
20260509112043 12 206 0.0 6.4 0.00 0.00 0.00 62 1009.7
20260509111547 12 0 1.6 8.0 0.00 0.00 0.00 63 1009.5
20260509111045 12 173 1.6 9.7 0.00 0.00 0.00 62 1009.3
20260509110540 12 142 3.2 9.7 0.00 0.00 0.00 62 1009.5
20260509110048 12 198 1.6 8.0 0.00 0.00 0.00 62 1009.4
20260509105542 12 174 1.6 8.0 0.00 0.00 0.00 62 1009.3
20260509105041 12 206 1.6 8.0 0.00 0.00 0.00 62 1009.4
20260509104553 12 212 3.2 8.0 0.00 0.00 0.00 62 1009.5
20260509104041 12 207 1.6 4.8 0.00 0.00 0.00 62 1009.5
20260509103540 12 205 1.6 4.8 0.00 0.00 0.00 63 1009.4
20260509103050 12 0 1.6 4.8 0.00 0.00 0.00 63 1009.4
20260509102541 12 207 0.0 4.8 0.00 0.00 0.00 63 1009.4
20260509102041 12 215 0.0 6.4 0.00 0.00 0.00 63 1009.3
20260509101552 12 204 1.6 9.7 0.00 0.00 0.00 63 1009.4
20260509101040 12 212 3.2 9.7 0.00 0.00 0.00 62 1009.2
20260509100540 12 182 3.2 8.0 0.00 0.00 0.00 62 1009.3
20260509100050 12 209 1.6 6.4 0.00 0.00 0.00 62 1009.2
20260509095541 12 191 1.6 3.2 0.00 0.00 0.00 62 1009.3
20260509095040 12 220 1.6 3.2 0.00 0.00 0.00 62 1009.4
20260509094612 12 225 0.0 4.8 0.00 0.00 0.00 62 1009.3
20260509094041 12 205 1.6 6.4 0.00 0.00 0.00 62 1009.4
20260509093541 12 0 0.0 8.0 0.00 0.00 0.00 62 1009.4
20260509093050 12 207 1.6 9.7 0.00 0.00 0.00 61 1009.4
20260509092543 12 205 3.2 9.7 0.00 0.00 0.00 61 1009.4
20260509092040 12 210 3.2 9.7 0.00 0.00 0.00 61 1009.3
20260509091547 12 193 3.2 9.7 0.00 0.00 0.00 61 1009.4
20260509091040 12 176 3.2 9.7 0.00 0.00 0.00 61 1009.4
20260509090541 12 190 3.2 9.7 0.00 0.00 0.00 60 1009.4
20260509090100 12 205 3.2 9.7 0.00 0.00 0.00 60 1009.5
20260509085540 12 193 1.6 6.4 0.00 0.00 0.00 60 1009.4
20260509085040 12 0 0.0 4.8 0.00 0.00 0.00 60 1009.6
20260509084558 12 214 1.6 6.4 0.00 0.00 0.00 60 1009.7
20260509084041 12 193 1.6 11.3 0.00 0.00 0.00 60 1009.7
20260509083543 12 202 3.2 11.3 0.00 0.00 0.00 59 1009.7
20260509083052 12 173 1.6 6.4 0.00 0.00 0.00 59 1009.7
20260509082540 12 221 1.6 8.0 0.00 0.00 0.00 58 1009.6
20260509082041 12 0 1.6 8.0 0.00 0.00 0.00 59 1009.6
20260509081552 13 0 0.0 9.7 0.00 0.00 0.00 59 1009.7
20260509081041 13 207 1.6 12.9 0.00 0.00 0.00 58 1009.5
20260509080540 13 213 1.6 12.9 0.00 0.00 0.00 59 1009.5
20260509080046 13 227 4.8 12.9 0.00 0.00 0.00 58 1009.5
20260509075540 13 221 3.2 12.9 0.00 0.00 0.00 58 1009.6
20260509075040 13 195 3.2 12.9 0.00 0.00 0.00 59 1009.5
20260509074551 13 203 4.8 12.9 0.00 0.00 0.00 59 1009.5
20260509074041 13 186 4.8 11.3 0.00 0.00 0.00 58 1009.5
20260509073541 13 197 3.2 12.9 0.00 0.00 0.00 59 1009.5
20260509073050 13 198 3.2 12.9 0.00 0.00 0.00 59 1009.5
20260509072544 13 183 3.2 12.9 0.00 0.00 0.00 59 1009.6
20260509072042 13 216 3.2 11.3 0.00 0.00 0.00 59 1009.7
20260509071557 13 192 3.2 11.3 0.00 0.00 0.00 59 1009.6
20260509071040 12 200 3.2 11.3 0.00 0.00 0.00 59 1009.6
20260509070541 12 228 4.8 14.5 0.00 0.00 0.00 59 1009.7
20260509070049 12 215 1.6 16.1 0.00 0.00 0.00 60 1009.7
20260509065540 12 222 3.2 16.1 0.00 0.00 0.00 59 1009.8
20260509065040 12 196 4.8 16.1 0.00 0.00 0.00 59 1009.7
20260509064549 13 219 3.2 20.9 0.00 0.00 0.00 59 1009.7
20260509064040 13 217 6.4 20.9 0.00 0.00 0.00 59 1009.8
20260509063540 13 220 4.8 14.5 0.00 0.00 0.00 59 1009.9
20260509063047 13 211 3.2 14.5 0.00 0.00 0.00 59 1009.9
20260509062540 13 213 3.2 17.7 0.00 0.00 0.00 59 1009.9
20260509062041 13 223 6.4 17.7 0.00 0.00 0.00 58 1010.0
20260509061553 13 205 6.4 17.7 0.00 0.00 0.00 58 1009.9
20260509061041 13 222 4.8 17.7 0.00 0.00 0.00 58 1009.9
20260509060542 13 202 8.0 17.7 0.00 0.00 0.00 58 1009.9
20260509060046 13 138 4.8 16.1 0.00 0.00 0.00 57 1009.7
20260509055540 13 213 8.0 17.7 0.00 0.00 0.00 57 1009.7
20260509055040 13 178 8.0 17.7 0.00 0.00 0.00 57 1009.7
20260509054605 13 137 3.2 11.3 0.00 0.00 0.00 57 1009.9
20260509054041 13 164 3.2 9.7 0.00 0.00 0.00 57 1010.0
20260509053541 13 141 3.2 9.7 0.00 0.00 0.00 57 1010.1
20260509053139 13 0 1.6 6.4 0.00 0.00 0.00 56 1010.2
20260509052543 13 196 1.6 8.0 0.00 0.00 0.00 56 1010.3
20260509052040 13 178 1.6 8.0 0.00 0.00 0.00 56 1010.4
20260509051551 13 205 1.6 8.0 0.00 0.00 0.00 55 1010.6
20260509051040 13 188 1.6 9.7 0.00 0.00 0.00 55 1010.6
20260509050541 14 201 3.2 9.7 0.00 0.00 0.00 55 1010.7
20260509050053 13 198 3.2 8.0 0.00 0.00 0.00 55 1010.8
20260509045541 13 196 1.6 12.9 0.00 0.00 0.00 55 1010.6
20260509045041 13 195 3.2 12.9 0.00 0.00 0.00 54 1010.6
20260509044549 13 178 4.8 11.3 0.00 0.00 0.00 55 1010.6
20260509044042 13 170 4.8 12.9 0.00 0.00 0.00 55 1010.6
20260509043541 13 158 4.8 12.9 0.00 0.00 0.00 56 1010.6
20260509043048 13 182 4.8 11.3 0.00 0.00 0.00 57 1010.8
20260509042541 13 199 1.6 8.0 0.00 0.00 0.00 57 1010.7
20260509042044 13 167 1.6 8.0 0.00 0.00 0.00 57 1010.7
20260509041546 13 148 0.0 6.4 0.00 0.00 0.00 57 1010.7
20260509041041 13 161 1.6 6.4 0.00 0.00 0.00 57 1010.7
20260509040540 13 138 0.0 3.2 0.00 0.00 0.00 57 1010.8
20260509040107 13 0 0.0 3.2 0.00 0.00 0.00 57 1010.9
20260509035542 13 142 0.0 3.2 0.00 0.00 0.00 57 1010.9
20260509035041 13 81 0.0 4.8 0.00 0.00 0.00 57 1010.9
20260509034609 13 81 1.6 4.8 0.00 0.00 0.00 57 1010.9
20260509034040 13 76 1.6 4.8 0.00 0.00 0.00 56 1010.9
20260509033541 13 90 3.2 4.8 0.00 0.00 0.00 55 1011.0
20260509033049 13 98 1.6 4.8 0.00 0.00 0.00 55 1011.0
20260509032544 13 180 0.0 3.2 0.00 0.00 0.00 55 1011.1
20260509032040 13 180 0.0 3.2 0.00 0.00 0.00 55 1011.1
20260509031551 13 0 0.0 1.6 0.00 0.00 0.00 55 1011.2
20260509031129 13 0 0.0 1.6 0.00 0.00 0.00 54 1011.1
20260509030541 14 0 0.0 1.6 0.00 0.00 0.00 54 1011.2
20260509030101 14 0 0.0 1.6 0.00 0.00 0.00 54 1011.1
20260509025541 14 0 0.0 1.6 0.00 0.00 0.00 54 1011.2
20260509025041 14 0 0.0 3.2 0.00 0.00 0.00 53 1011.4
20260509024554 14 177 0.0 4.8 0.00 0.00 0.00 53 1011.3
20260509024056 14 181 1.6 6.4 0.00 0.00 0.00 53 1011.3
20260509023540 14 139 1.6 6.4 0.00 0.00 0.00 56 1011.1
20260509023051 14 123 3.2 6.4 0.00 0.00 0.00 56 1011.2